Winslow, AZ

1:24 AM MST on April 21, 2018 (GMT -0700)
Winslow-Lindbergh Regional

Weather History for KINW - December, 2013

Change the Weather History Date:

Tuesday, December 31, 2013

  Actual Average Record
Temperature  
Mean Temperature 38 °F 34 °F  
Max Temperature 56 °F 47 °F 66 °F (1998)
Min Temperature 19 °F 20 °F -11 °F (1932)
Degree Days  
Heating Degree Days 27 31  
Month to date heating degree days 989 943  
Since 1 July heating degree days 1961 1878  
Cooling Degree Days 0 0  
Month to date cooling degree days 0 0  
Year to date cooling degree days 1380 1208  
Moisture  
Dew Point 13 °F    
Average Humidity 46    
Maximum Humidity 73    
Minimum Humidity 18    
Precipitation  
Precipitation 0.00 in 0.02 in 1.15 in (1915)
Month to date precipitation 0.05 0.56  
Year to date precipitation 9.51 7.01  
Sea Level Pressure  
Sea Level Pressure 30.31 in    
Wind  
Wind Speed 5 mph (SE)    
Max Wind Speed 10 mph    
Max Gust Speed 13 mph    
Visibility 10 miles    
Events      
T = Trace of Precipitation, MM = Missing Value Source: NWS Daily Summary

Daily Weather History Graph

Daily Weather History Graph

Search for Another Location

Airport or City:

Astronomy

Dec. 31, 2013 Rise Set
Actual Time 7:30 AM MST 5:21 PM MST
Civil Twilight 7:02 AM MST 5:49 PM MST
Nautical Twilight 6:31 AM MST 6:21 PM MST
Astronomical Twilight 6:00 AM MST 6:52 PM MST
Moon 6:28 AM MST (12/31) 4:59 PM MST (12/31)
Length of Visible Light 10h 46m
Length of Day
9h 50m
Waning Crescent, 1% of the Moon is Illuminated
Dec 31
Waning Crescent
Jan 1
New
Jan 7
First Quarter
Jan 15
Full
Jan 23
Last Quarter

Hourly Weather History & Observations

Time (MST) Temp. Windchill Dew Point Humidity Pressure Visibility Wind Dir Wind Speed Gust Speed Precip Events Conditions
12:56 AM 19.9 °F 13.4 °F 12.0 °F 71% 30.41 in 10.0 mi SE 4.6 mph - N/A   Clear
1:56 AM 19.9 °F 11.1 °F 10.9 °F 68% 30.39 in 10.0 mi ESE 6.9 mph - N/A   Clear
2:56 AM 23.0 °F 17.0 °F 12.9 °F 65% 30.37 in 10.0 mi ESE 4.6 mph - N/A   Clear
3:56 AM 19.0 °F 12.3 °F 12.0 °F 74% 30.38 in 10.0 mi ESE 4.6 mph - N/A   Clear
4:56 AM 21.9 °F 13.4 °F 12.0 °F 66% 30.36 in 10.0 mi ESE 6.9 mph - N/A   Clear
5:56 AM 21.0 °F 13.4 °F 10.9 °F 65% 30.41 in 10.0 mi SE 5.8 mph - N/A   Clear
6:56 AM 19.9 °F 11.1 °F 10.0 °F 65% 30.45 in 10.0 mi ESE 6.9 mph - N/A   Clear
7:56 AM 21.0 °F 11.4 °F 10.9 °F 65% 30.45 in 10.0 mi SE 8.1 mph - N/A   Clear
8:56 AM 27.0 °F 21.6 °F 12.9 °F 56% 30.44 in 10.0 mi SE 4.6 mph - N/A   Clear
9:56 AM 33.1 °F 26.1 °F 12.9 °F 43% 30.42 in 10.0 mi ESE 8.1 mph - N/A   Clear
10:56 AM 39.0 °F 34.0 °F 12.9 °F 34% 30.38 in 10.0 mi East 6.9 mph - N/A   Clear
11:56 AM 45.0 °F 41.8 °F 12.0 °F 26% 30.32 in 10.0 mi East 5.8 mph - N/A   Clear
12:56 PM 48.9 °F - 10.9 °F 22% 30.26 in 10.0 mi ENE 4.6 mph - N/A   Clear
1:56 PM 52.0 °F - 12.9 °F 21% 30.23 in 10.0 mi Variable 3.5 mph - N/A   Clear
2:56 PM 55.0 °F - 14.0 °F 20% 30.19 in 10.0 mi Variable 3.5 mph - N/A   Clear
3:56 PM 55.0 °F - 12.9 °F 19% 30.19 in 10.0 mi ENE 3.5 mph - N/A   Clear
4:56 PM 53.1 °F - 14.0 °F 21% 30.19 in 10.0 mi Calm Calm - N/A   Clear
5:56 PM 37.9 °F 34.4 °F 14.0 °F 38% 30.24 in 10.0 mi NW 4.6 mph - N/A   Clear
6:56 PM 33.1 °F 27.7 °F 15.1 °F 48% 30.27 in 10.0 mi WSW 5.8 mph - N/A   Clear
7:56 PM 33.1 °F - 16.0 °F 50% 30.27 in 10.0 mi Calm Calm - N/A   Clear
8:56 PM 27.0 °F 20.5 °F 15.1 °F 61% 30.27 in 10.0 mi SSW 5.8 mph - N/A   Clear
9:56 PM 27.0 °F 21.6 °F 16.0 °F 63% 30.25 in 10.0 mi SW 4.6 mph - N/A   Clear
10:56 PM 26.1 °F - 17.1 °F 69% 30.24 in 10.0 mi Calm Calm - N/A   Clear
11:56 PM 26.1 °F - 17.1 °F 69% 30.21 in 10.0 mi Calm Calm - N/A   Clear